Regional Weather Roundup
Issued by NWS Sioux Falls, SD

Home | Current Version | Previous Version | Text Only | Print | Product List | Glossary Off
Versions: 1 2 3 4 5 6 7 8 9 10 11 12 13 14 15 16 17 18 19 20 21 22 23 24 25 26 27 28 29 30 31 32 33 34 35 36 37 38 39 40 41 42 43 44 45 46 47 48 49 50

000
ASUS43 KFSD 230310
RWRFSD

WEATHER ROUNDUP FOR SE SOUTH DAKOTA/SW MINNESOTA/NW IOWA
NATIONAL WEATHER SERVICE SIOUX FALLS SD
1000 PM CDT THU JUN 22 2017

NOTE: "FAIR" INDICATES FEW OR NO CLOUDS BELOW 12,000 FEET WITH NO
SIGNIFICANT WEATHER AND OR OBSTRUCTIONS TO VISIBILITY.


SDZ038>040-050-052>070-230400-
SOUTHEAST SOUTH DAKOTA

CITY           SKY/WX    TMP DP  RH WIND       PRES   REMARKS
BROOKINGS      CLEAR     63  54  72 CALM      29.85R
CHAMBERLAIN    CLEAR     67  55  67 CALM      29.88R
HURON          LGT RAIN  67  54  63 SW6       29.83R
MADISON        FAIR      57  55  94 NW6       29.86R
MITCHELL       CLEAR     68  47  46 CALM      29.85R
SIOUX FALLS    PTCLDY    63  52  67 NW3       29.84R
WINNER         FAIR      69  43  38 N5        29.90R
YANKTON        PTCLDY    67  53  61 N7        29.85R
$$

MNZ071-072-080-081-089-090-097-098-230400-
SOUTHWEST MINNESOTA

CITY           SKY/WX    TMP DP  RH WIND       PRES   REMARKS
FAIRMONT       CLOUDY    66  58  75 N10       29.78R
JACKSON        CLOUDY    61  55  82 CALM      29.81R
LUVERNE        MOCLDY    63  52  67 N3        29.83R
MARSHALL       CLEAR     62  57  83 SW7       29.81R
MONTEVIDEO     CLEAR     63  54  72 W5        29.79S
PIPESTONE      CLEAR     64  48  55 CALM      29.84R
REDWOOD FALLS  CLEAR     63  56  78 W5        29.78R
TRACY          CLEAR     64  56  73 W6        29.82R
WINDOM         CLOUDY    61  55  82 NW7       29.80R
WORTHINGTON    CLOUDY    60  56  86 NW7       29.82R
$$

IAZ001>003-012>014-020>022-031-032-NEZ013-014-SDZ071-230400-
NORTHWEST IOWA

CITY           SKY/WX    TMP DP  RH WIND       PRES   REMARKS
CHEROKEE       CLEAR     67  63  86 N7        29.78R
DENISON        CLOUDY    72  64  78 N17G23    29.76R
ESTHERVILLE    CLEAR     63  60  90 N10       29.78R
LE MARS        MOCLDY    70  61  73 N6        29.80R
ORANGE CITY    PTCLDY    68  57  68 N8        29.80R
SHELDON        CLOUDY    66  55  68 N10       29.79R
SIOUX CITY       N/A    N/A N/A N/A MISG      29.78R
SPENCER        CLEAR     67  57  70 N13       29.79R
STORM LAKE     CLEAR     68  61  77 N14       29.78R
$$

ABBREVIATIONS USED IN REMARKS
   TC - TEMPERATURE IN CELSIUS
  WCI - WIND CHILL INDEX
   HX - HEAT INDEX
  VSB - VISIBILITY




USA.gov is the U.S. government's official web portal to all federal, state and local government web resources and services.